Powrót do katalogu

STARLINK-2674

AktywnyŁącznośćVLEO
NORAD 48354·PAYLOAD·🇺🇸 United States

Wystrzelony May 4, 2021 z Cape Canaveral Space Force Station

Loading…

Następne Przeloty (najbliższe 24 godziny)

TLE

ŚwieżeSource: CelesTrak SupGP

Epoka: Sep 14, 2026, 13:48 UTC

1 48354C 21038B   26257.57548611 -.00010381  00000+0 -33398-3 0  2577
2 48354  53.1585 199.1856 0001141  89.5147 225.2619 15.31691067    10

Śledź STARLINK-2674 w czasie rzeczywistym z AllMySat

Download on the App Store